• MPC Preparation (Info)

  • MPEC 2022-Q197 : 2022 QE8

    The following Minor Planet Electronic Circular may be linked-to from your own Web pages, but must not otherwise be redistributed electronically.

    A form allowing access to any MPEC is at the bottom of this page.


    Read MPEC 2022-Q196 Read MPEC 2022-Q198


    M.P.E.C. 2022-Q197                              Issued 2022 August 30, 20:04 UT
    
         The Minor Planet Electronic Circulars contain information on unusual
             minor planets and routine data on comets.  They are published
        on behalf of Division F of the International Astronomical Union by the
              Minor Planet Center, Smithsonian Astrophysical Observatory,
                              Cambridge, MA 02138, U.S.A.
    
                 Prepared using the Tamkin Foundation Computer Network
    
                                  MPC@CFA.HARVARD.EDU
                URL https://www.minorplanetcenter.net/    ISSN 1523-6714
    
                                    2022 QE8                                 
    
    
    Observations:
         K22Q08E* C2022 08 29.57088401 29 13.646+00 14 33.99         20.74wUEQ197F51
         K22Q08E  C2022 08 29.58397001 29 18.329+00 17 00.96         21.00wUEQ197F51
         K22Q08E  C2022 08 29.59729201 29 23.145+00 19 32.22         20.58wUEQ197F51
         K22Q08E  C2022 08 29.61054701 29 27.988+00 22 02.14         21.02wUEQ197F51
         K22Q08E 1C2022 08 30.08975 01 32 47.36 +01 52 40.9          20.9 VXEQ197033
         K22Q08E 1C2022 08 30.09098 01 32 47.82 +01 52 54.4          20.8 VXEQ197033
         K22Q08E 1C2022 08 30.09221 01 32 48.30 +01 53 08.6          20.8 VXEQ197033
         K22Q08E 1C2022 08 30.09353 01 32 48.81 +01 53 23.9          20.4 VXEQ197033
         K22Q08E 1C2022 08 30.09482 01 32 49.32 +01 53 39.0          20.4 VXEQ197033
         K22Q08E mC2022 08 30.34575701 34 37.859+02 43 00.91         21.16GVEQ197V06
         K22Q08E mC2022 08 30.34608901 34 37.996+02 43 05.05         20.90GVEQ197V06
         K22Q08E mC2022 08 30.34642101 34 38.125+02 43 08.54         20.86GVEQ197V06
         K22Q08E mC2022 08 30.34675101 34 38.262+02 43 12.65               VEQ197V06
         K22Q08E ^C2022 08 30.47766401 35 33.646+03 09 22.20         20.50GVEQ197568
         K22Q08E ^C2022 08 30.47868401 35 34.035+03 09 34.22         20.65GVEQ197568
         K22Q08E ^C2022 08 30.47966201 35 34.406+03 09 45.83         20.65GVEQ197568
         K22Q08E ^C2022 08 30.48065401 35 34.787+03 09 57.63         20.71GVEQ197568
    
    Observer details:
    033 Karl Schwarzschild Observatory, Tautenburg.  Observers S. Melnikov, C.
        Hoegner, U. Laux, F. Ludwig, B. Stecklum.  Measurer B. Stecklum.  1.34-m
        f/3 Schmidt + CCD.
    568 Mauna Kea.  Observers R. Wainscoat, L. Wells, E. Bertin.  Measurers R.
        Weryk, R. Wainscoat.  3.6-m Canada-France-Hawaii Telescope + CCD.
    F51 Pan-STARRS 1, Haleakala.  Observers J. Bulger, T. Lowe, A. Schultz, I.
        Smith.  Measurers K. Chambers, S. Chastel, T. de Boer, J. Fairlamb, H.
        Gao, M. Huber, C.-C. Lin, E. Magnier, Y. Ramanjooloo, R. Wainscoat, R.
        Weryk.  1.8-m Ritchey-Chretien + CCD.
    V06 Catalina Sky Survey-Kuiper.  Observer H. Groeller.  Measurers E. J.
        Christensen, D. Fay, J. B. Fazekas, D. C. Fuls, A. R. Gibbs, A. D. Grauer,
        H. Groeller, J. K. Hogan, R. A. Kowalski, S. M. Larson, G. J. Leonard, D.
        Rankin, R. L. Seaman, A. Serrano, F. C. Shelly, K. W. Wierzchos.  1.55-m
        reflector + 1K CCD.
    
    Orbital elements:
    2022 QE8                                                 Earth MOID = 0.0367 AU
    Epoch 2022 Aug. 9.0 TT = JDT 2459800.5                  Veres                   
    M 331.05272              (2000.0)            P               Q                  
    n   0.52218703     Peri.   34.52540     +0.95564911     -0.28972202             
    a   1.5272800      Node   342.09016     +0.21621868     +0.81211075             
    e   0.3410412      Incl.    9.90092     +0.19996063     +0.50649510             
    P   1.89           H   24.74          G   0.15           U   9                  
    Residuals in seconds of arc
    220829 F51  0.0   0.1-    220830 033  0.6-  0.7-    220830 V06  0.1-  0.2-
    220829 F51 (0.4-  0.8-)   220830 033  0.6-  0.7-    220830 568  0.0   0.1+
    220829 F51  0.3-  0.1+    220830 033  0.3-  0.6-    220830 568  0.0   0.0
    220829 F51  0.4+  0.2+    220830 V06  0.4-  0.2-    220830 568  0.0   0.0
    220830 033  0.5-  0.1+    220830 V06  0.2-  0.0     220830 568  0.0   0.0
    220830 033  0.7-  0.6-    220830 V06  0.2-  0.4-
    
    Ephemeris:
    2022 QE8                 a,e,i = 1.53, 0.34, 10                  q = 1.0064
    Date    TT    R. A. (2000) Decl.     Delta      r    Elong.  Phase     V
    2022 07 31    23 28 36.2 -36 01 16   0.2084  1.1802   138.9    34.4    23.1
    ...
    2022 08 15    00 15 40.5 -27 34 20   0.1288  1.1156   140.8    35.0    22.0
    ...
    2022 08 23    00 50 43.1 -16 18 26   0.09455 1.0855   140.0    36.8    21.3
    ...
    2022 08 29    01 25 25.3 -01 30 24   0.07592 1.0654   135.3    41.8    20.9
    2022 08 30    01 32 09.7 +01 36 43   0.07370 1.0623   133.9    43.2    20.9
    2022 08 31    01 39 13.3 +04 54 09   0.07179 1.0593   132.3    44.8    20.9
    ...
    2022 09 06    02 29 10.4 +26 37 57   0.06769 1.0426   118.9    57.8    21.1
    ...
    2022 09 14    03 57 19.9 +50 03 55   0.08084 1.0248   101.2    74.4    21.9
    ...
    2022 09 29    06 50 59.6 +63 38 07   0.1314  1.0073    88.6    83.9    23.3
    
    M. P. C. Staff               (C) Copyright 2022 MPC           M.P.E.C. 2022-Q197
    


    Read MPEC 2022-Q196 Read MPEC 2022-Q198


    MPEC number:

    Enter an MPEC number in one of the following forms:

    • 1997-B01 (the full form)
    • J97B01 (the packed version of the full form)
    • B01 (the abbreviated form)